Regional Weather Roundup
Issued by NWS

Home | Current Version | Previous Version | Text Only | Print | Product List | Glossary On
Versions: 1 2 3 4 5 6 7 8 9 10 11 12 13 14 15 16 17 18 19 20 21 22 23 24 25 26 27 28 29 30 31 32 33 34 35 36 37 38 39 40 41 42 43 44 45 46 47 48 49 50
000
ASUS44 KFWD 271415
RWRTX
NORTH TEXAS HOURLY WEATHER ROUNDUP
NATIONAL WEATHER SERVICE FORT WORTH TX
900 AM CDT FRI MAY 27 2016

NOTE: "FAIR" INDICATES FEW OR NO CLOUDS BELOW 12,000 FEET WITH NO
SIGNIFICANT WEATHER AND/OR OBSTRUCTIONS TO VISIBILITY.

TXZ118-119-271500-
DALLAS/FORT WORTH METROPLEX

CITY           SKY/WX    TMP DP  RH WIND       PRES   REMARKS
DFW AIRPORT    LGT RAIN  68  65  90 S14       29.82R
DALLAS LOVE    LGT RAIN  68  66  93 E14       29.76F
FTW MEACHAM    LGT RAIN  67  63  87 S12G29    29.79R
DAL-EXECUTIVE  LGT RAIN  66  64  93 SE9       29.78R
FTW-ALLIANCE   TSTM      65  63  93 SE9       29.77R
FTW-NAS-JRB    TSTM      66  63  90 SE14      29.79R
FTW-SPINKS     TSTM      64  63  94 SE8       29.83R
ARLINGTON      LGT RAIN  69  64  84 S7        29.81R
GRAND PRAIRIE  RAIN      66  66 100 S7        29.82R
ADDISON        RAIN      66  66 100 E15G22    29.76R
MESQUITE       CLOUDY    66  66 100 SE5       29.80R
LANCASTER      TSTM      65  63  94 CALM      29.80R
$$

TXZ091>094-102>105-117-120-121-131>134-271500-
NORTH CENTRAL TEXAS

CITY           SKY/WX    TMP DP  RH WIND       PRES   REMARKS
SHRMAN/DENISON CLOUDY    61  56  84 E16G22    29.66S
GAINESVILLE    CLOUDY    64  60  87 CALM      29.74R
BOWIE          CLOUDY    64  59  84 S9        29.76R
BRIDGEPORT     CLOUDY    64  64  97 S6        29.77S
DECATUR        CLOUDY    64  62  92 S12       29.76R
DENTON         LGT RAIN  66  62  87 S12       29.76R
MCKINNEY       RAIN      66  64  93 SE7       29.77R
GREENVILLE     LGT RAIN  68  66  94 SE6       29.79S
ROCKWALL       RAIN      67  67 100 E6        29.77R
TERRELL        RAIN      67  66  97 NE3       29.80R
WAXAHACHIE     RAIN      65  65 100 SE3       29.83R
CLEBURNE       RAIN      64  64 100 SE8       29.84R
GRANBURY       CLOUDY    64  62  92 SE12      29.80R
$$

TXZ083>090-098>101-113>116-127>130-139>142-154-155-271500-
WESTERN NORTH TEXAS

CITY           SKY/WX    TMP DP  RH WIND       PRES   REMARKS
WICHITA FALLS  CLOUDY    66  62  87 S13       29.74R
WF-KICKAPOO    CLOUDY    68  62  82 S13G20    29.75R
VERNON         CLOUDY    68  59  72 S16       29.74R
ABILENE        CLOUDY    66  63  90 SE10      29.78R
ABILENE-DYESS  PTSUNNY   65  58  79 SE9       29.77R
BRECKENRIDGE   CLOUDY    65  63  93 NE5       29.75F
GRAHAM         CLOUDY    64  62  94 SE5       29.73F
MINERAL WELLS  LGT RAIN  63  61  93 SE9G22    29.77S
STEPHENVILLE   CLOUDY    63  60  92 W3        29.84R VSB 3/4
COMANCHE       TSTM      64  64 100 N6        29.86R
BROWNWOOD      LGT RAIN  64  63  94 NE8       29.82R
COLEMAN        CLOUDY    66  64  96 E10       29.79R
$$

TXZ143>147-156>162-174-175-271500-
CENTRAL TEXAS

CITY           SKY/WX    TMP DP  RH WIND       PRES   REMARKS
WACO           CLOUDY    64  62  93 E8        29.82R
WACO-TSTC      CLOUDY    64  64 100 CALM      29.85R
WACO-MCGREGOR  CLOUDY   N/A N/A N/A E8          N/A
HILLSBORO      LGT RAIN  63  62  97 SE3       29.84R
CORSICANA      HVY RAIN  67  63  87 E7        29.84R FOG
MEXIA          TSTM      64  63  98 SE3       29.86R
HEARNE         TSTM      65  64  96 CALM      29.85R
CAMERON        CLOUDY    64  63  95 N8        29.85S
TEMPLE         CLOUDY    63  63 100 E13       29.85R
KILLEEN        LGT RAIN  64  63  94 NE8       29.82R
KILLEEN-SKYLRK LGT RAIN  64  63  96 E6        29.83R
FORT HOOD      CLOUDY    63  63 100 NE5       29.81R
GATESVILLE     LGT RAIN  64  63  94 SE5       29.85R
HAMILTON       LGT RAIN  63  63 100 SE6       29.84R
LAMPASAS       RAIN      63  62  97 E7        29.82R
$$

TXZ095>097-106>112-122>126-135>138-148>153-164>167-271500-
EAST TEXAS

CITY           SKY/WX    TMP DP  RH WIND       PRES   REMARKS
PARIS          CLOUDY    70  61  73 N3        29.82F
SULPHUR SPRNGS LGT RAIN  69  68  97 NE5       29.81F
MOUNT PLEASANT CLOUDY    71  66  85 NE3       29.83F
GILMER         CLOUDY    67  66  95 CALM      29.82F
MINEOLA        CLOUDY    70  66  88 S5        29.85R
TYLER          LGT RAIN  69  66  90 SW6       29.87R
LONGVIEW       CLOUDY    68  67  96 S8        29.84S
MARSHALL       CLOUDY    69  66  90 CALM      29.89S
ATHENS         RAIN      66  66 100 S7        29.85R
PALESTINE      LGT RAIN  66  66  99 SE6       29.87S
JACKSONVILLE   RAIN      67  67  99 SW3       29.91R
HENDERSON      LGT RAIN  67  66  94 SE3       29.87S
CENTER         RAIN      70  68  95 CALM      29.87R
NACOGDOCHES    CLOUDY    68  66  94 CALM      29.86F
LUFKIN         LGT RAIN  67  66  97 NE3       29.86F
$$

SUPPLEMENTAL OBSERVATIONS (CENTRAL)

CITY           SKY/WX    TMP DP  RH WIND       PRES   REMARKS
LAKE TEXOMA      N/A     64  61  88 SE12        N/A
CADDO GRASSLND   N/A     66  63  88 NE2G12      N/A
PAT MAYSE LAKE   N/A     70  68  94 SW3         N/A
GREENVILLE       N/A     68  64  88 NE7         N/A
MCGREGOR         N/A     64  61  88 E8          N/A
TEMPLE           N/A     63  59  88 E12         N/A
$$

SUPPLEMENTAL OBSERVATIONS (WEST)

CITY           SKY/WX    TMP DP  RH WIND       PRES   REMARKS
MILLERS CREEK    N/A     66  59  77 S8G18       N/A
POSSUM KINGDOM   N/A     64  61  88 E8          N/A
LBJ GRASSLAND    N/A     64  61  88 S8          N/A
GRANBURY         N/A     63  59  88 SE13        N/A
HAMBY            N/A     68  61  77 SE9         N/A
IVIE RESERVOIR   N/A     70  66  88 E8          N/A
COLORADO BEND    N/A     63  59  88 SE10G20     N/A
$$

SUPPLEMENTAL OBSERVATIONS (EAST)

CITY           SKY/WX    TMP DP  RH WIND       PRES   REMARKS
CLARKSVILLE      N/A     72  68  88 N5          N/A
TEXARKANA        N/A     70  66  88 SE1G12      N/A
LINDEN           N/A     70  64  83 E2G10       N/A
GILMER           N/A     70  66  88 SE5         N/A
HENDERSON        N/A     68  64  88 S6          N/A
LUFKIN           N/A     68  64  88 MISG        N/A
N SABINE NF      N/A     70  68  94 MISG        N/A
S SABINE NF      N/A     70  66  88 SW1G14      N/A
$$

SUPPLEMENTAL OBSERVATIONS ARE A COLLECTION OF AUTOMATED INSTRUMENTS
THAT ARE MAINTAINED BY A VARIETY OF FEDERAL AND STATE AGENCIES.
CERTAIN ELEMENTS...SUCH AS HUMIDITY VALUES AND SUSTAINED WIND
SPEEDS...MAY BE APPROXIMATED.




USA.gov is the U.S. government's official web portal to all federal, state and local government web resources and services.